Regional Weather Roundup
Issued by NWS Grand Forks, ND

Home | Current Version | Previous Version | Graphics & Text | Print | Product List | Glossary On
Versions: 1 2 3 4 5 6 7 8 9 10 11 12 13 14 15 16 17 18 19 20 21 22 23 24 25 26 27 28 29 30 31 32 33 34 35 36 37 38 39 40 41 42 43 44 45 46 47 48 49 50
000
ASUS43 KFGF 190510
RWRFGF
PRAIRIE TO PINES  WEATHER ROUNDUP
NATIONAL WEATHER SERVICE EASTERN NORTH DAKOTA/GRAND FORKS ND
1200 AM CDT SAT APR 19 2014

 **SATELLITE DATA USED TO AUGMENT SKY COVER AT AUTOMATED STATIONS**
 *****  WEATHER ACROSS EASTERN NORTH DAKOTA  *****

CITY           SKY/WX    TMP DP  RH WIND       PRES   REMARKS
GRAND FORKS    CLOUDY    43  29  57 SE28G39   29.84F
GRAND FRKS AFB CLOUDY    43  30  58 S25G35    29.84F
GRAND FRKS NWS   N/A     43 N/A N/A SE22        N/A
DEVILS LAKE    CLOUDY    39  28  65 SE23G35   29.72F
FARGO          CLOUDY    47  30  51 SE33G44   29.84F
WAHPETON ARPT  CLOUDY    45  30  57 SE31G40   29.88F
$$

 ***** WEATHER ACROSS CENTRAL AND WESTERN NORTH DAKOTA  *****

CITY           SKY/WX    TMP DP  RH WIND       PRES   REMARKS
BISMARCK       CLOUDY    48  39  71 NW12      29.62R
MINOT          CLOUDY    40  36  86 E9        29.68F
JAMESTOWN      MOCLDY    46  36  68 SE30G44   29.65F
MINOT AFB      CLOUDY    39  39 100 E13       29.68S
GARRISON         N/A     42  38  85 E7        29.65F
WILLISTON      LGT RAIN  43  41  93 W25G36    29.74R
DICKINSON      PTCLDY    43  39  86 W24G32    29.73R
HETTINGER      PTCLDY    40  36  86 NW7       29.75R
$$

 *****  OTHER AIRPORT OBSERVATIONS IN OUR AREA  *****

CITY           SKY/WX    TMP DP  RH WIND       PRES   REMARKS
WALHALLA       FAIR      41  28  60 SE21G31   29.85F
GRAFTON AIRPOR FAIR      41  30  65 SE21G26   29.86F
VALLEY CITY AR MOCLDY    43  32  65 SE24G36   29.76F
CANDO          MOCLDY    39  30  70 SE23G32   29.74F
CAVALIER APRT  FAIR      39  32  75 SE13G18   29.86F
GWINNER        CLEAR     46  36  66 SE31G39   29.80F
ROLLA          CLOUDY    37  32  81 SE15      29.80S
 ***** THE ABOVE OBSERVATIONS ARE NON NWS ARE NOT QUALITY
       CONTROLLED AND MAY MIS-REPORT RAIN FOR SNOW...
$$

  *****  WEATHER ACROSS NORTHERN MINNESOTA  *****

CITY           SKY/WX    TMP DP  RH WIND       PRES   REMARKS
FLAG ISLAND    LGT SNOW  36  28  75 SE14G24   30.14F
WARROAD        CLOUDY    37  30  75 E21G28    30.07F
ROSEAU         CLOUDY    39  28  65 E15G24    30.03F
HALLOCK        CLOUDY    45  23  42 SE24G33   29.89F
THF RVR FALLS  CLOUDY    43  23  45 SE23G33   29.95F
BAUDETTE       CLOUDY    38  25  59 SE14G28   30.13F
WASKISH        CLOUDY    39  18  41 E17G26    30.11F
CROOKSTON      NOT AVBL
$$
  *****  WEATHER ACROSS CENTRAL AND WEST MINNESOTA  *****

CITY           SKY/WX    TMP DP  RH WIND       PRES   REMARKS
FOSSTON        CLOUDY    41  23  48 SE22G35   29.97S
BEMIDJI        CLOUDY    39  20  46 SE17G28   30.07F
PARK RAPIDS    CLOUDY    41  22  46 SE23G29   30.04F
ELBOW LAKE     FAIR      42  31  64 SE25G36   29.95F
WADENA         CLOUDY    39  25  56 SE21      30.03F
DETROIT LAKES  CLOUDY    41  27  56 SE25G37   29.98S
MOORHEAD       NOT AVBL
FERGUS FALLS   CLOUDY    45  27  49 SE29G36   29.92S
MORRIS MN      CLOUDY    45  34  65 SE29G38   29.95F
STAPLES        CLOUDY    41  21  45 E13G22    30.08F
$$
  *****  WEATHER ELSEWHERE ACROSS MINNESOTA  *****

CITY           SKY/WX    TMP DP  RH WIND       PRES   REMARKS
DULUTH         CLOUDY    31  21  66 E16       30.28F WCI  20
INTRNTL FALLS  CLOUDY    37  19  48 SE12G22   30.23S
ELY            CLOUDY    32  19  59 SE8       30.31S WCI  25
CLOQUET        CLOUDY    34  21  60 E12G18    30.26F
WHEATON        CLOUDY    48  37  66 SE36G43   29.89F
BRAINERD       CLOUDY    45  21  38 SE15G25   30.14F
HIBBING        CLOUDY    34  19  54 E13       30.25F WCI  25
ALEXANDRIA     CLOUDY    41  28  60 SE23G33   30.03F
SAINT CLOUD    CLOUDY    42  25  50 E12G21    30.14F
MINNEAPOLIS    CLOUDY    45  27  49 E14       30.19F
$$

  *****  WEATHER ACROSS SOUTH DAKOTA  *****

CITY           SKY/WX    TMP DP  RH WIND       PRES   REMARKS
SIOUX FALLS    CLOUDY    56  38  50 S21G28    29.93F
BROOKINGS      NOT AVBL
WATERTOWN      MOCLDY    52  37  56 SE21G31   29.84F
HURON          MOCLDY    60  40  47 S21G33    29.75F
SISSETON         N/A     44  36  73 S23       29.85F
ABERDEEN       PTCLDY    57  40  52 S30G43    29.71F
MITCHELL         N/A     61  42  49 S26G35    29.81F
PIERRE         CLOUDY    67  43  41 S22G31    29.62R
MOBRIDGE       CLOUDY    58  41  53 SE16      29.56R
RAPID CITY     MOCLDY    54  40  59 N23G32    29.73R
$$

  *****  SOME WEATHER IN NEARBY STATES *****

CITY           SKY/WX    TMP DP  RH WIND       PRES   REMARKS
GLASGOW MT     PTCLDY    39  33  79 SW9       29.74S
GREAT FALLS MT CLEAR     37  18  46 SW14      29.86R
CHEYENNE WY    CLOUDY    57  30  35 SW7       29.93S
SCOTTSBLUFF NE CLOUDY    66  32  28 W9        29.82R
OMAHA NE       PTCLDY    56  40  55 S10       30.09S
DES MOINES IA  MOCLDY    54  34  46 SE13      30.18S
DAVENPORT IA   MOCLDY    47  36  65 E13       30.31R
CHICAGO IL     CLEAR     38  25  59 VRB7      30.37S
EAU CLAIRE WI  CLEAR     43  23  45 E12G17    30.27S
LA CROSSE WI   CLEAR     45  27  49 S6        30.26S
$$

  *****  SOME NATIONAL WEATHER *****

CITY           SKY/WX    TMP DP  RH WIND       PRES   REMARKS
LA GUARDIA NY  CLOUDY    42  33  70 SW5       30.27S
RALEIGH NC     LGT RAIN  49  45  86 NE7       30.22F
ATLANTA GA     LGT RAIN  51  48  89 NE17      30.10F
NEW ORLEANS LA PTCLDY    61  55  81 N9        30.15R
OKLAHOMA CITY  MOCLDY    55  43  63 S5        30.14R
ALBUQUERQUE NM LGT RAIN  62  36  37 W29G37    30.14R
SALT LAKE CITY MOCLDY    54  47  77 N3        29.96S
LOS ANGELES CA MOCLDY    62  54  74 CALM      29.93S
BOISE ID       MOCLDY    49  25  39 CALM      29.97S
SEATTLE WA     MOCLDY    52  35  52 E7        29.97F
$$

*** WEATHER ACROSS MANITOBA...SASKATCHEWAN AND ONTARIO ***
                ***ONTARIO***

CITY           SKY/WX    TMP DP  RH WIND       PRES   REMARKS
GERALDTON      PTCLDY    27  12  54 E2        30.41R
THUNDER BAY    PTCLDY    27  25  93 NE6       30.43R WCI  20
SIOUX LOOKOUT  PTCLDY    34  10  37 SE6       30.29F
TORONTO        PTCLDY    36  27  69 NW12      30.32R
BIG TROUT LK   CLEAR     25  12  58 SE8       30.40R WCI  16
PICKLE LAKE    NOT AVBL
DRYDEN         CLOUDY    34  19  55 SE13G18   30.26S WCI  25
KENORA         CLOUDY    37  18  44 SE15G21   30.18F
$$
                *** MANITOBA***

CITY           SKY/WX    TMP DP  RH WIND       PRES   REMARKS
BRANDON        LGT RAIN  36  34  93 E15       29.83F
DAUPHIN        NOT AVBL
ISLAND LAKE    CLEAR     32  12  43 SE6       30.25F
PILOT MOUND      N/A     37  32  81 SE24G31     N/A
THE PAS        FLURRIES  34  21  60 SE13      30.03F WCI  25
THOMPSON       CLEAR     30   9  40 E7        30.21F WCI  23
WINNIPEG       CLOUDY    36  32  87 E25G35    29.94F
LYNN LAKE      CLEAR     25   5  42 SE3       30.13F
CHURCHILL      CLEAR     10   7  85 S10       30.37S WCI  -3
GILLAM         CLEAR     23  16  74 E6        30.32F WCI  16
$$
                ***SASKATCHEWAN***

CITY           SKY/WX    TMP DP  RH WIND       PRES   REMARKS
ESTEVAN        LGT RAIN  37  37 100 SW9       29.70R
KINDERSLEY     FLURRIES  32  32 100 N9        29.66R WCI  24
LLOYDMINSTER   CLOUDY    32  30  93 NE7       29.76R
PRINCE ALBERT  LGT SNOW  28  27  93 E17G24    29.79S FOG     WCI  16
REGINA         CLOUDY    37  36  93 E10       29.60F
YORKTON        LGT SNOW  34  32  93 SE20      29.72F WCI  22
N. BATTLEFORD  CLOUDY    32  30  93 E16       29.74S WCI  21
LA RONGE       FLURRIES  30  21  69 E12       29.95F WCI  21
SASKATOON      FLURRIES  32  30  93 E15       29.68F WCI  22
SWIFT CURRENT  MOCLDY    39  36  87 W17       29.60S
$$
NOTE: THESE ARE AUTOMATED STATIONS WITH LIMITED QUALITY CONTROL
      "FAIR" INDICATES FEW OR NO CLOUDS BELOW 12,000 FEET WITH NO
      SIGNIFICANT WEATHER AND/OR OBSTRUCTIONS TO VISIBILITY.
      SKY/WX - SKY CONDITION AND SIGNIFICANT WEATHER.
      TMP - AIR TEMPERATURE.    DP   - DEWPOINT TEMPERATURE.
      RH  - RELATIVE HUMIDITY.  PRES - PRESSURE.
      HX  - HEAT INDEX.         WCI  - WIND CHILL INDEX.
$



USA.gov is the U.S. government's official web portal to all federal, state and local government web resources and services.